Location: Unspecified
(48.5670°N, 0.0000°E)
Time: 23:56:42
(UTC+00:00)

Transit 4A - Pass Details

Date: 28 August 2019
Orbit: 867 x 978 km, 66.8° (Epoch: 23 October)

Event Time Altitude Azimuth Distance (km) Brightness Sun altitude
Rises 00:04:06 0° 325° (NW) 3,653 11.7 -31.5°
Reaches altitude 10° 00:06:56 10° 334° (NNW) 2,690 11.0 -31.5°
Maximum altitude 00:12:38 35° 39° (NE) 1,471 9.2 -31.5°
Enters shadow 00:15:41 22° 88° (E) 1,891 9.5 -31.5°
